STARLINK-2052 (47662 NORAD) Tracking and Keplerian Element Data

This shows tracking and keplerian element data for the satellite.

Feedback or suggestion? Click here.




ElementValue
Catalog47662
NameSTARLINK-2052
Epoch Orbit177
Epoch Day101.91668981
Epoch Year2021
RAAN188.951
Inclination53.0472
Eccentricity0.0002195
Argument of Perigee31.457
Mean Anonmoly29.7351
Mean Motion15.7325146
Decay Rate-0.00019107
L11 47662U 21012AU 21101.91668981 -.00019107 00000-0 -13168-3 0 9996
L22 47662 53.0472 188.9510 0002195 31.4570 29.7351 15.73251460 1773

Live tracking and technical data element details for STARLINK-2052 (NORAD 47662). STARLINK-2052 can be tracked NOW for your location showing map with azimuth and elevation plus other details from your city location.

Track the satellite on the map from your city or location and see movement details for azimuth, elevation, latitude, longitude, range, height, and movement on the map or in text.







IsCatalogInMostPopularTable: catalog: 47662, numindb: 18
Update: records affected: 1



GetName: 47662 STARLINK-2052

Hit Count: updated at: Tue, 13 Apr 2021 05:35:08 GMT